Content
SEND FEEDBACK

Daily
Averages
Monthly
Summary
Spain

SEVILLE, SPAIN


Home > Europe > Spain
Elevation: 102 feet     Latitude: 37 25N     Longitude: 005 54W

WEATHER
 
SELECT A DAY
Number of Records: 244,463;   Date Range: 7/1/96 - 7/20/14
 
SHARE

PRINT THIS DATA

[ ← Previous Day ]
WEATHER ALMANAC - FEBRUARY 5, 2013
[ Next Day → ]
[ °C ]   °F
Weather ElementAverageHighLow
Temperature51.8 °F64.4 °F (3:00 pm)39.2 °F (8:30 am)
Dewpoint44.4 °F50 °F (8:00 pm)39.2 °F (5:00 am)
Humidity77.9 %100 % (8:30 am)49 % (3:00 pm)
Barometer30.29 in30.36 in (12:30 am)30.21 in (6:00 pm)
Wind Speed2 mph8.1 mph (4:30 pm)
Weather ElementAverage
Visibility5.6 mi
Wind DirectionE (90.5 °)

Weather ElementTotal
Precipitation---
Heating Degree Days13.2 (Base 65)
Growing Degree Days1.8 (Base 50)
Averaged from 40 records on February 5, 2013
WEATHER CONDITIONS BREAKOUT
WIND DIRECTION BREAKOUT
WEATHER BY HOUR - FEBRUARY 5, 2013
[ °C ]   °F
Local TimeTemperatureDewpointHumidityBarometerVisibilityWind DirectionWind SpeedGust SpeedPrecipitationEventsConditions
12:30 AM46.4 °F41.0 °F81 %30.36 inNE (40°)1.2 mphClear
1:00 AM44.6 °F41.0 °F87 %30.36 inNNE (20°)1.2 mphClear
4:30 AM42.8 °F41.0 °F93 %30.33 inNNW (340°)1.2 mphClear
5:00 AM41.0 °F39.2 °F93 %30.33 inNNW (340°)2.3 mphClear
5:30 AM41.0 °F39.2 °F93 %30.33 inVariable1.2 mphClear
6:00 AM41.0 °F39.2 °F93 %30.33 inCalmClear
6:30 AM41.0 °F39.2 °F93 %30.33 inCalmClear
7:00 AM41.0 °F39.2 °F93 %30.33 inCalmClear
7:30 AM41.0 °F39.2 °F93 %30.33 inCalmClear
8:00 AM41.0 °F39.2 °F93 %30.33 inCalmClear
8:30 AM39.2 °F39.2 °F100 %30.33 inVariable1.2 mphClear
9:00 AM41.0 °F41.0 °F100 %30.36 inCalmClear
9:30 AM42.8 °F41.0 °F93 %30.36 inCalmClear
10:00 AM46.4 °F44.6 °F93 %30.36 inCalmClear
10:30 AM50.0 °F44.6 °F82 %30.36 inCalmClear
11:00 AM51.8 °F44.6 °F76 %30.36 inVariable1.2 mphClear
11:30 AM53.6 °F44.6 °F72 %30.36 inCalmClear
12:00 PM53.6 °F44.6 °F72 %30.33 inVariable1.2 mphClear
12:30 PM57.2 °F46.4 °F67 %30.33 inCalmClear
1:00 PM57.2 °F44.6 °F63 %30.33 inCalmClear
1:30 PM59.0 °F46.4 °F63 %30.30 inWest (280°)1.2 mphClear
2:00 PM60.8 °F44.6 °F55 %30.30 inSW (220°)1.2 mphClear
2:30 PM62.6 °F44.6 °F52 %30.27 inSW (220°)1.2 mphClear
3:00 PM64.4 °F44.6 °F49 %30.27 inCalmClear
3:30 PM64.4 °F44.6 °F49 %30.24 inSSW (200°)4.6 mphClear
4:30 PM64.4 °F46.4 °F52 %30.24 inSSW (210°)8.1 mphClear
5:00 PM64.4 °F48.2 °F56 %30.24 inSW (220°)8.1 mphClear
5:30 PM64.4 °F48.2 °F56 %30.24 inSSW (200°)6.9 mphClear
6:00 PM62.6 °F48.2 °F59 %30.21 inSSW (210°)6.9 mphClear
6:30 PM60.8 °F48.2 °F63 %30.21 inSSW (200°)5.8 mphClear
7:00 PM60.8 °F48.2 °F63 %30.24 inSSW (210°)5.8 mphClear
7:30 PM59.0 °F48.2 °F67 %30.24 inSSW (200°)5.8 mphClear
8:00 PM57.2 °F50.0 °F77 %30.24 inVariable2.3 mphClear
8:30 PM53.6 °F48.2 °F82 %30.24 inSSE (160°)4.6 mphClear
9:00 PM53.6 °F48.2 °F82 %30.24 inCalmClear
9:30 PM51.8 °F48.2 °F88 %30.24 inVariable1.2 mphClear
10:00 PM50.0 °F48.2 °F94 %30.24 inSouth (170°)2.3 mphClear
10:30 PM48.2 °F46.4 °F93 %30.24 inSouth (180°)1.2 mphClear
11:00 PM48.2 °F46.4 °F93 %30.24 in5.6 miVariable1.2 mph
11:30 PM48.2 °F46.4 °F93 %30.24 in5.6 miVariable2.3 mph
Hourly data recorded from LEZL, located miles away from Seville, Spain







STORIES FROM OUR PARTNERS